Consulta los datos en tiempo real de la estación meteorológica de Parc Astronòmic del Montsec
| Hora UTC | 05:00 |
|---|---|
| Temperatura | 9.4 ºC |
| Humedad | 87.0 % |
| Presión | 1012.4 hPa |
| Pluja | 0.0 mm |
| Velocidad viento | 1.6 km/h |
| Dirección viento | N |
| Temperatura (ºC) | Humedad (%) | Presión (hPa) | Velocidad viento (km/h) | Precipitación (mm) | ||||||||||||
|---|---|---|---|---|---|---|---|---|---|---|---|---|---|---|---|---|
| Hora UTC | Aire | Humedad | Presión | Vel. | Dir. | Vel. Max | Dir. | Intent. máx 5 min. | ||||||||
| 00:15 | 10.9 | 89.0 | 1013.5 | 3.2 | 0.0 | |||||||||||
| 00:30 | 10.8 | 88.0 | 1013.3 | NNE | 3.2 | 0.0 | ||||||||||
| 00:45 | 10.6 | 88.0 | 1013.3 | 1.6 | 3.2 | 0.0 | ||||||||||
| 01:00 | 10.4 | 88.0 | 1013.3 | NNE | 3.2 | 0.0 | ||||||||||
| 01:15 | 10.0 | 87.0 | 1013.1 | 4.8 | 4.8 | NNE | 0.0 | |||||||||
| 01:30 | 10.1 | 85.0 | 1012.7 | NNE | 4.8 | NNE | 0.0 | |||||||||
| 01:45 | 9.9 | 86.0 | 1012.7 | 3.2 | 4.8 | NNE | 0.0 | |||||||||
| 02:00 | 9.6 | 87.0 | 1012.7 | NNE | 4.8 | NNE | 0.0 | |||||||||
| 02:15 | 9.4 | 87.0 | 1012.8 | NNE | 4.8 | NNE | 0.0 | |||||||||
| 02:30 | 9.6 | 86.0 | 1012.7 | 1.6 | N | 4.8 | NNE | 0.0 | ||||||||
| 02:45 | 9.6 | 84.0 | 1012.7 | 1.6 | 4.8 | NNE | 0.0 | |||||||||
| 03:00 | 9.4 | 83.0 | 1012.8 | 1.6 | N | 4.8 | NNE | 0.0 | ||||||||
| 03:15 | 9.3 | 86.0 | 1012.9 | 1.6 | 4.8 | NNE | 0.0 | |||||||||
| 03:30 | 9.8 | 85.0 | 1012.8 | NNE | 4.8 | NNE | 0.0 | |||||||||
| 03:45 | 10.3 | 84.0 | 1012.4 | 1.6 | 4.8 | NNE | 0.0 | |||||||||
| 04:00 | 10.4 | 84.0 | 1012.2 | 1.6 | N | 4.8 | NNE | 0.0 | ||||||||
| 04:15 | 10.3 | 86.0 | 1012.4 | 4.8 | NNE | 0.0 | ||||||||||
| 04:30 | 9.7 | 87.0 | 1012.7 | NNE | 4.8 | NNE | 0.0 | |||||||||
| 04:45 | 9.6 | 88.0 | 1012.5 | 4.8 | NNE | 0.0 | ||||||||||
| 05:00 | 9.4 | 87.0 | 1012.4 | 1.6 | N | 4.8 | NNE | 0.0 | ||||||||
| Máxima | 10.9 | 89.0 | 1013.5 | 4.8 | 4.8 | NNE | 0.0 | |||||||||
| Mínima | 9.3 | 83.0 | 1012.2 | |||||||||||||
| Total | 0.0 | |||||||||||||||